Regional Weather Roundup
Issued by NWS

Home | Current Version | Previous Version | Graphics & Text | Print | Product List | Glossary On
Versions: 1 2 3 4 5 6 7 8 9 10 11 12 13 14 15 16 17 18 19 20 21 22 23 24 25 26 27 28 29 30 31 32 33 34 35 36 37 38 39 40 41 42 43 44 45 46 47 48 49 50
000
ASUS43 KIND 012009
RWRIN

WEATHER ROUNDUP FOR INDIANA
NATIONAL WEATHER SERVICE INDIANAPOLIS IN
400 PM EDT SAT AUG 01 2015

NOTE: "FAIR" INDICATES FEW OR NO CLOUDS BELOW 12,000 FEET WITH NO
SIGNIFICANT WEATHER AND/OR OBSTRUCTIONS TO VISIBILITY.

* - STATION DOES NOT REPORT WEATHER SUCH AS PRECIPITATION OR FOG.

+ - STATION NOT QUALITY CONTROLLED BY THE NATIONAL WEATHER SERVICE.
    USE DATA WITH CAUTION...ESPECIALLY DEWPOINT AND RELATIVE
    HUMIDITY OBSERVATIONS.

INZ001>003-010>013-019-020-012100-
NORTHWEST INDIANA

CITY           SKY/WX    TMP DP  RH WIND       PRES   REMARKS
GARY /AIRPORT/ PTSUNNY   86  55  35 W14       29.97S
KNOX *+        PTSUNNY   81  54  39 W6        29.96F
LA PORTE +     MOSUNNY   84  56  37 NW6       29.96F
MICHIGAN CITY+ MOSUNNY   81  50  34 N5        29.96F
MONTICELLO +   MOSUNNY   84  60  44 W9        29.98S
RENSSELAER +   PTSUNNY   84  59  42 W8        29.98S
VALPARAISO     MOSUNNY   83  56  39 NW10G17   29.96F

$$

LMZ046-743>745-012100-
SOUTHERN LAKE MICHIGAN

STATION/POSITION TIME  TEMP    WIND        PRES    WAVE
                       AIR SEA DIR/SP/G            HT
                 (UTC) (F)     (DEG/KT/KT) (MB)    (FT)
BURNS HARBOR     1900   78     360/  3/  3 1014.9F
MICHIGAN CITY    1900   81     320/  1/  1   N/A
5NW MICH CITY    2000   78 76  140/  4/  4   N/A     1

$$

INZ004-005-014>016-021>024-012100-
NORTH CENTRAL INDIANA

CITY           SKY/WX    TMP DP  RH WIND       PRES   REMARKS
ELKHART        PTSUNNY   82  48  30 NW12      29.97F
GOSHEN         CLOUDY    78  54  43 NW8       29.97S
LOGANSPORT +   PTSUNNY   81  45  28 W5        29.99S
PERU/GRISSOM   MOSUNNY   83  53  36 W9        29.97F
ROCHESTER +    MOSUNNY   82  52  34 NW7       29.98S
SOUTH BEND     PTSUNNY   83  50  31 W9        29.97F
WARSAW +       PTSUNNY   79  54  41 NW10      29.97S

$$

INZ006>009-017-018-025>027-012100-
NORTHEAST INDIANA

CITY           SKY/WX    TMP DP  RH WIND       PRES   REMARKS
ANGOLA *+      MOSUNNY   84  55  37 NW13      29.95F
AUBURN +       MOSUNNY   82  48  30 W14       29.97S
FORT WAYNE     MOSUNNY   83  53  35 W16       29.97F
HUNTINGTON +   SUNNY     81  54  38 NW5       29.97F

$$

INZ028-029-035-036-043>045-051>053-012100-
WEST CENTRAL INDIANA

CITY           SKY/WX    TMP DP  RH WIND       PRES   REMARKS
CRAWFORDSVL +  MOSUNNY   78  49  36 CALM        N/A
GREENCASTLE +  PTSUNNY   81  46  30 N5        30.02F
LAFAYETTE      SUNNY     82  60  47 W10       29.98F
TERRE HAUTE    PTSUNNY   83  55  38 CALM      30.01F

$$

INZ030>032-037>040-046>048-054>057-064-065-012100-
CENTRAL INDIANA

CITY           SKY/WX    TMP DP  RH WIND       PRES   REMARKS
ANDERSON       SUNNY     81  45  28 NW10      30.01F
COLUMBUS       SUNNY     82  43  24 W6        30.01
FRANKFORT +    SUNNY     83  58  42 SW8       30.02F
GREENWOOD *+   MOSUNNY   82  48  30 MISG      30.01F
INDIANAPOLIS   PTSUNNY   83  53  35 NW8       30.00S
-EAGLE CREEK   MOSUNNY   82  55  39 W6        30.00F
KOKOMO *+      MOSUNNY   84  54  34 W7        29.99F
MARION +       SUNNY     81  53  37 W7        29.99F
MT COMFORT *+  SUNNY     82  36  18 W7        30.01S
SHELBYVILLE    MOSUNNY   84  56  38 NW9       29.99F
ZIONSVILLE +   SUNNY     82  53  37 W8        30.02S

$$

INZ033-034-041-042-049-050-058-059-012100-
EAST CENTRAL INDIANA

CITY           SKY/WX    TMP DP  RH WIND       PRES   REMARKS
MUNCIE         SUNNY     80  53  39 W7G18     29.99F

$$

INZ060-061-067>069-081>083-085>088-012100-
SOUTHWEST INDIANA

CITY           SKY/WX    TMP DP  RH WIND       PRES   REMARKS
EVANSVILLE     SUNNY     88  58  36 NW8       30.01F
HUNTINGBURG *+ SUNNY     86  57  37 N10       30.01S
WASHINGTON +   SUNNY     84  46  26 CALM      30.00F

$$

INZ062-063-066-070>080-084-089>092-012100-
SOUTH CENTRAL AND SOUTHEAST INDIANA

CITY           SKY/WX    TMP DP  RH WIND       PRES   REMARKS
BLOOMINGTON    PTSUNNY   81  58  45 NW5       30.02F
MADISON *+     SUNNY     82  54  36 N3        30.03S
NORTH VERNON + SUNNY     84  48  28 NW7       30.01F
SEYMOUR +      MOSUNNY   86  57  37 NW10      30.00F

$$



USA.gov is the U.S. government's official web portal to all federal, state and local government web resources and services.